ABS-3A (40424 NORAD) Tracking and Keplerian Element Data

This shows tracking and keplerian element data for the satellite.

Feedback or suggestion? Click here.




ElementValue
Catalog40424
NameABS-3A
Epoch Orbit2411
Epoch Day269.8346467
Epoch Year2021
RAAN197.5734
Inclination0.0067
Eccentricity0.0002398
Argument of Perigee254.9665
Mean Anonmoly210.8025
Mean Motion1.00271976
Decay Rate-2.8E-07
L11 40424U 15010A 21269.83464670 -.00000028 00000-0 00000-0 0 9990
L22 40424 0.0067 197.5734 0002398 254.9665 210.8025 1.00271976 24113

Live tracking and technical data element details for ABS-3A (NORAD 40424). ABS-3A can be tracked NOW for your location showing map with azimuth and elevation plus other details from your city location.

Track the satellite on the map from your city or location and see movement details for azimuth, elevation, latitude, longitude, range, height, and movement on the map or in text.







IsCatalogInMostPopularTable: catalog: 40424, numindb: 534
Update: records affected: 1



GetName: 40424 ABS-3A

Hit Count: updated at: Tue, 28 Sep 2021 17:40:48 GMT